| time (UTC) | temp F | wind direction | speed knots | gust knots | rain 1hr in | rain 24hr in | rain mn in | humidity % | barometer mb |
| 20260505035523 | 63 | 210 | 0.0 | 0.9 | 0.00 | 0.00 | 0.00 | 78 | 1011.9 |
| 20260505035022 | 63 | 204 | 0.0 | 2.6 | 0.00 | 0.00 | 0.00 | 77 | 1011.9 |
| 20260505034542 | 64 | 205 | 0.0 | 2.6 | 0.00 | 0.00 | 0.00 | 76 | 1011.9 |
| 20260505034024 | 64 | 202 | 1.7 | 2.6 | 0.00 | 0.00 | 0.00 | 76 | 1012.0 |
| 20260505033526 | 63 | 189 | 0.9 | 4.3 | 0.00 | 0.00 | 0.00 | 76 | 1012.0 |
| 20260505033035 | 63 | 190 | 1.7 | 4.3 | 0.00 | 0.00 | 0.00 | 76 | 1011.8 |
| 20260505032529 | 63 | 173 | 0.9 | 2.6 | 0.00 | 0.00 | 0.00 | 76 | 1011.9 |
| 20260505032029 | 64 | 162 | 0.9 | 2.6 | 0.00 | 0.00 | 0.00 | 76 | 1011.8 |
| 20260505031547 | 63 | 174 | 0.9 | 2.6 | 0.00 | 0.00 | 0.00 | 76 | 1011.9 |
| 20260505031023 | 63 | 163 | 0.9 | 2.6 | 0.00 | 0.00 | 0.00 | 76 | 1011.9 |
| 20260505030526 | 63 | 170 | 0.9 | 1.7 | 0.00 | 0.00 | 0.00 | 76 | 1012.0 |
| 20260505030041 | 63 | 169 | 0.9 | 1.7 | 0.00 | 0.00 | 0.00 | 76 | 1012.0 |
| 20260505025528 | 64 | 173 | 0.0 | 1.7 | 0.00 | 0.00 | 0.00 | 76 | 1012.0 |
| 20260505025026 | 64 | 172 | 0.0 | 1.7 | 0.00 | 0.00 | 0.00 | 75 | 1011.9 |
| 20260505024541 | 64 | 158 | 0.0 | 0.9 | 0.00 | 0.00 | 0.00 | 75 | 1011.7 |
| 20260505024023 | 64 | 157 | 0.0 | 0.9 | 0.00 | 0.00 | 0.00 | 75 | 1011.8 |
| 20260505023524 | 64 | 193 | 0.0 | 0.9 | 0.00 | 0.00 | 0.00 | 74 | 1011.8 |
| 20260505023041 | 64 | 198 | 0.0 | 0.9 | 0.00 | 0.00 | 0.00 | 74 | 1011.9 |
| 20260505022523 | 65 | 0 | 0.0 | 0.9 | 0.00 | 0.00 | 0.00 | 73 | 1011.6 |
| 20260505022029 | 65 | 165 | 0.0 | 0.9 | 0.00 | 0.00 | 0.00 | 73 | 1011.6 |
| 20260505021538 | 65 | 156 | 0.0 | 0.9 | 0.00 | 0.00 | 0.00 | 73 | 1011.3 |
| 20260505021025 | 65 | 155 | 0.0 | 0.9 | 0.00 | 0.00 | 0.00 | 73 | 1011.4 |
| 20260505020525 | 65 | 173 | 0.0 | 0.9 | 0.00 | 0.00 | 0.00 | 72 | 1011.6 |
| 20260505020040 | 66 | 158 | 0.0 | 1.7 | 0.00 | 0.00 | 0.00 | 71 | 1011.5 |
| 20260505015524 | 66 | 153 | 0.0 | 1.7 | 0.00 | 0.00 | 0.00 | 70 | 1011.2 |
| 20260505015024 | 66 | 167 | 0.0 | 0.9 | 0.00 | 0.00 | 0.00 | 70 | 1011.2 |
| 20260505014542 | 67 | 183 | 0.0 | 0.9 | 0.00 | 0.00 | 0.00 | 68 | 1011.3 |
| 20260505014023 | 67 | 192 | 0.0 | 0.9 | 0.00 | 0.00 | 0.00 | 67 | 1011.5 |
| 20260505013523 | 67 | 190 | 0.0 | 0.9 | 0.00 | 0.00 | 0.00 | 66 | 1011.5 |
| 20260505013037 | 68 | 203 | 0.0 | 0.9 | 0.00 | 0.00 | 0.00 | 66 | 1011.5 |
| 20260505012523 | 68 | 0 | 0.0 | 3.5 | 0.00 | 0.00 | 0.00 | 64 | 1011.5 |
| 20260505012023 | 69 | 203 | 0.9 | 3.5 | 0.00 | 0.00 | 0.00 | 63 | 1011.5 |
| 20260505011544 | 69 | 212 | 1.7 | 3.5 | 0.00 | 0.00 | 0.00 | 62 | 1011.2 |
| 20260505011022 | 69 | 218 | 0.9 | 3.5 | 0.00 | 0.00 | 0.00 | 63 | 1011.4 |
| 20260505010523 | 69 | 217 | 0.0 | 2.6 | 0.00 | 0.00 | 0.00 | 62 | 1011.4 |
| 20260505010053 | 69 | 213 | 0.9 | 4.3 | 0.00 | 0.00 | 0.00 | 61 | 1011.4 |
| 20260505005523 | 70 | 0 | 0.9 | 4.3 | 0.00 | 0.00 | 0.00 | 61 | 1011.3 |
| 20260505005024 | 70 | 211 | 0.9 | 4.3 | 0.00 | 0.00 | 0.00 | 60 | 1011.3 |
| 20260505004538 | 71 | 223 | 0.9 | 6.1 | 0.00 | 0.00 | 0.00 | 59 | 1011.2 |
| 20260505004023 | 72 | 219 | 2.6 | 7.0 | 0.00 | 0.00 | 0.00 | 56 | 1011.3 |
| 20260505003524 | 72 | 230 | 3.5 | 8.7 | 0.00 | 0.00 | 0.00 | 54 | 1011.2 |
| 20260505003037 | 73 | 206 | 3.5 | 9.6 | 0.00 | 0.00 | 0.00 | 54 | 1011.1 |
| 20260505002524 | 74 | 207 | 6.1 | 10.4 | 0.00 | 0.00 | 0.00 | 51 | 1011.0 |
| 20260505002023 | 74 | 207 | 7.0 | 10.4 | 0.00 | 0.00 | 0.00 | 51 | 1011.2 |
| 20260505001539 | 74 | 223 | 7.0 | 9.6 | 0.00 | 0.00 | 0.00 | 51 | 1011.1 |
| 20260505001023 | 74 | 225 | 5.2 | 10.4 | 0.00 | 0.00 | 0.00 | 51 | 1011.3 |
| 20260505000523 | 75 | 225 | 6.1 | 10.4 | 0.00 | 0.00 | 0.00 | 51 | 1011.1 |
| 20260505000047 | 75 | 216 | 6.1 | 10.4 | 0.00 | 0.00 | 0.00 | 51 | 1011.1 |
| 20260504235524 | 75 | 214 | 6.1 | 13.0 | 0.00 | 0.00 | 0.00 | 50 | 1011.2 |
| 20260504235024 | 76 | 228 | 7.0 | 13.0 | 0.00 | 0.00 | 0.00 | 48 | 1011.3 |
| 20260504234541 | 76 | 225 | 7.0 | 13.0 | 0.00 | 0.00 | 0.00 | 48 | 1011.4 |
| 20260504234023 | 76 | 194 | 5.2 | 10.4 | 0.00 | 0.00 | 0.00 | 50 | 1011.4 |
| 20260504233524 | 77 | 224 | 7.0 | 13.0 | 0.00 | 0.00 | 0.00 | 49 | 1011.6 |
| 20260504233039 | 77 | 216 | 7.0 | 13.0 | 0.00 | 0.00 | 0.00 | 48 | 1011.6 |
| 20260504232524 | 77 | 204 | 6.1 | 10.4 | 0.00 | 0.00 | 0.00 | 50 | 1011.6 |
| 20260504232025 | 77 | 219 | 7.0 | 12.2 | 0.00 | 0.00 | 0.00 | 47 | 1011.7 |
| 20260504231538 | 77 | 200 | 8.7 | 12.2 | 0.00 | 0.00 | 0.00 | 47 | 1011.7 |
| 20260504231024 | 77 | 205 | 8.7 | 12.2 | 0.00 | 0.00 | 0.00 | 46 | 1011.8 |
| 20260504230523 | 77 | 249 | 7.8 | 12.2 | 0.00 | 0.00 | 0.00 | 46 | 1011.9 |
| 20260504230035 | 77 | 207 | 7.8 | 12.2 | 0.00 | 0.00 | 0.00 | 47 | 1012.0 |
| 20260504225528 | 78 | 223 | 7.0 | 15.6 | 0.00 | 0.00 | 0.00 | 46 | 1011.9 |
| 20260504225023 | 78 | 200 | 7.0 | 15.6 | 0.00 | 0.00 | 0.00 | 47 | 1012.0 |
| 20260504224538 | 78 | 195 | 7.0 | 13.0 | 0.00 | 0.00 | 0.00 | 47 | 1011.8 |
| 20260504224023 | 78 | 212 | 7.0 | 13.0 | 0.00 | 0.00 | 0.00 | 48 | 1012.0 |
| 20260504223523 | 78 | 216 | 7.8 | 13.0 | 0.00 | 0.00 | 0.00 | 48 | 1012.0 |
| 20260504223037 | 78 | 214 | 7.8 | 12.2 | 0.00 | 0.00 | 0.00 | 47 | 1012.1 |
| 20260504222522 | 78 | 179 | 8.7 | 13.0 | 0.00 | 0.00 | 0.00 | 48 | 1012.1 |
| 20260504222023 | 78 | 199 | 7.8 | 13.0 | 0.00 | 0.00 | 0.00 | 48 | 1012.2 |
| 20260504221542 | 78 | 215 | 7.0 | 11.3 | 0.00 | 0.00 | 0.00 | 45 | 1012.2 |
| 20260504221023 | 78 | 196 | 7.0 | 13.9 | 0.00 | 0.00 | 0.00 | 47 | 1012.2 |
| 20260504220523 | 79 | 210 | 10.4 | 13.9 | 0.00 | 0.00 | 0.00 | 45 | 1012.3 |
| 20260504220048 | 79 | 202 | 7.0 | 17.4 | 0.00 | 0.00 | 0.00 | 46 | 1012.2 |
| 20260504215523 | 79 | 217 | 9.6 | 17.4 | 0.00 | 0.00 | 0.00 | 43 | 1012.4 |
| 20260504215026 | 79 | 185 | 7.8 | 14.8 | 0.00 | 0.00 | 0.00 | 47 | 1012.5 |
| 20260504214538 | 79 | 223 | 8.7 | 14.8 | 0.00 | 0.00 | 0.00 | 46 | 1012.4 |
| 20260504214023 | 79 | 211 | 10.4 | 13.0 | 0.00 | 0.00 | 0.00 | 44 | 1012.6 |
| 20260504213524 | 79 | 217 | 8.7 | 26.9 | 0.00 | 0.00 | 0.00 | 44 | 1012.4 |
| 20260504213050 | 80 | 218 | 7.8 | 26.9 | 0.00 | 0.00 | 0.00 | 44 | 1012.7 |
| 20260504212524 | 79 | 134 | 7.0 | 15.6 | 0.00 | 0.00 | 0.00 | 46 | 1012.5 |
| 20260504212024 | 79 | 141 | 8.7 | 15.6 | 0.00 | 0.00 | 0.00 | 45 | 1012.7 |
| 20260504211541 | 79 | 205 | 8.7 | 17.4 | 0.00 | 0.00 | 0.00 | 45 | 1012.7 |
| 20260504211023 | 79 | 208 | 8.7 | 17.4 | 0.00 | 0.00 | 0.00 | 47 | 1012.8 |
| 20260504210529 | 79 | 210 | 10.4 | 17.4 | 0.00 | 0.00 | 0.00 | 45 | 1012.8 |
| 20260504210041 | 79 | 225 | 8.7 | 14.8 | 0.00 | 0.00 | 0.00 | 46 | 1012.8 |
| 20260504205526 | 79 | 191 | 8.7 | 14.8 | 0.00 | 0.00 | 0.00 | 48 | 1012.8 |
| 20260504205022 | 78 | 195 | 10.4 | 14.8 | 0.00 | 0.00 | 0.00 | 45 | 1013.0 |
| 20260504204542 | 79 | 183 | 9.6 | 13.9 | 0.00 | 0.00 | 0.00 | 44 | 1013.0 |
| 20260504204026 | 79 | 193 | 7.8 | 13.9 | 0.00 | 0.00 | 0.00 | 44 | 1013.0 |
| 20260504203526 | 79 | 186 | 8.7 | 13.0 | 0.00 | 0.00 | 0.00 | 46 | 1013.1 |
| 20260504203040 | 79 | 265 | 7.0 | 14.8 | 0.00 | 0.00 | 0.00 | 44 | 1013.2 |
| 20260504202526 | 79 | 200 | 8.7 | 15.6 | 0.00 | 0.00 | 0.00 | 47 | 1013.3 |
| 20260504202026 | 79 | 218 | 10.4 | 15.6 | 0.00 | 0.00 | 0.00 | 46 | 1013.4 |
| 20260504201538 | 78 | 188 | 5.2 | 13.9 | 0.00 | 0.00 | 0.00 | 45 | 1013.4 |
| 20260504201023 | 79 | 204 | 7.8 | 11.3 | 0.00 | 0.00 | 0.00 | 47 | 1013.7 |
| 20260504200526 | 79 | 241 | 6.1 | 13.0 | 0.00 | 0.00 | 0.00 | 47 | 1013.7 |
| 20260504200035 | 79 | 238 | 7.8 | 13.0 | 0.00 | 0.00 | 0.00 | 45 | 1013.8 |
| 20260504195523 | 79 | 195 | 8.7 | 13.9 | 0.00 | 0.00 | 0.00 | 45 | 1013.9 |
| 20260504195024 | 78 | 173 | 8.7 | 14.8 | 0.00 | 0.00 | 0.00 | 46 | 1014.1 |
| 20260504194535 | 78 | 221 | 7.0 | 14.8 | 0.00 | 0.00 | 0.00 | 45 | 1014.1 |
| 20260504194026 | 78 | 217 | 7.8 | 14.8 | 0.00 | 0.00 | 0.00 | 46 | 1014.1 |
| 20260504193523 | 77 | 192 | 7.0 | 13.9 | 0.00 | 0.00 | 0.00 | 47 | 1014.1 |
| 20260504193053 | 78 | 186 | 7.8 | 13.9 | 0.00 | 0.00 | 0.00 | 47 | 1014.3 |
| 20260504192523 | 79 | 235 | 7.8 | 13.9 | 0.00 | 0.00 | 0.00 | 46 | 1014.4 |
| 20260504192023 | 78 | 205 | 8.7 | 13.9 | 0.00 | 0.00 | 0.00 | 46 | 1014.5 |
| 20260504191541 | 78 | 206 | 4.3 | 13.0 | 0.00 | 0.00 | 0.00 | 44 | 1014.5 |
| 20260504191023 | 77 | 210 | 7.0 | 14.8 | 0.00 | 0.00 | 0.00 | 49 | 1014.5 |
| 20260504190526 | 78 | 229 | 9.6 | 14.8 | 0.00 | 0.00 | 0.00 | 46 | 1014.5 |
| 20260504190042 | 79 | 190 | 7.8 | 14.8 | 0.00 | 0.00 | 0.00 | 45 | 1014.5 |
| 20260504185523 | 78 | 222 | 5.2 | 13.0 | 0.00 | 0.00 | 0.00 | 46 | 1014.7 |
| 20260504185026 | 78 | 228 | 7.8 | 13.0 | 0.00 | 0.00 | 0.00 | 46 | 1014.7 |
| 20260504184542 | 78 | 224 | 7.8 | 12.2 | 0.00 | 0.00 | 0.00 | 47 | 1014.5 |
| 20260504184024 | 78 | 232 | 5.2 | 12.2 | 0.00 | 0.00 | 0.00 | 48 | 1014.7 |
| 20260504183524 | 78 | 203 | 8.7 | 12.2 | 0.00 | 0.00 | 0.00 | 45 | 1014.7 |
| 20260504183049 | 78 | 230 | 8.7 | 13.0 | 0.00 | 0.00 | 0.00 | 46 | 1014.8 |
| 20260504182523 | 78 | 250 | 7.0 | 13.0 | 0.00 | 0.00 | 0.00 | 47 | 1014.8 |
| 20260504182024 | 78 | 199 | 7.8 | 13.0 | 0.00 | 0.00 | 0.00 | 45 | 1014.9 |
| 20260504181539 | 78 | 250 | 7.0 | 13.0 | 0.00 | 0.00 | 0.00 | 47 | 1014.8 |
| 20260504181023 | 79 | 221 | 7.8 | 11.3 | 0.00 | 0.00 | 0.00 | 47 | 1015.0 |
| 20260504180526 | 78 | 236 | 5.2 | 12.2 | 0.00 | 0.00 | 0.00 | 46 | 1015.0 |
| 20260504180058 | 78 | 231 | 7.8 | 12.2 | 0.00 | 0.00 | 0.00 | 43 | 1015.0 |
| 20260504175524 | 78 | 230 | 7.0 | 15.6 | 0.00 | 0.00 | 0.00 | 44 | 1015.0 |
| 20260504175027 | 78 | 235 | 7.0 | 15.6 | 0.00 | 0.00 | 0.00 | 44 | 1015.2 |
| 20260504174541 | 78 | 238 | 7.8 | 14.8 | 0.00 | 0.00 | 0.00 | 44 | 1015.2 |
| 20260504174027 | 78 | 208 | 9.6 | 14.8 | 0.00 | 0.00 | 0.00 | 45 | 1015.3 |
| 20260504173526 | 76 | 229 | 6.1 | 12.2 | 0.00 | 0.00 | 0.00 | 52 | 1015.2 |
| 20260504173039 | 76 | 223 | 8.7 | 13.9 | 0.00 | 0.00 | 0.00 | 47 | 1015.3 |
| 20260504172523 | 77 | 256 | 8.7 | 14.8 | 0.00 | 0.00 | 0.00 | 47 | 1015.4 |
| 20260504172025 | 78 | 225 | 9.6 | 14.8 | 0.00 | 0.00 | 0.00 | 48 | 1015.3 |
| 20260504171541 | 77 | 210 | 8.7 | 16.5 | 0.00 | 0.00 | 0.00 | 49 | 1015.4 |
| 20260504171024 | 77 | 240 | 7.0 | 16.5 | 0.00 | 0.00 | 0.00 | 50 | 1015.4 |
| 20260504170526 | 77 | 238 | 8.7 | 16.5 | 0.00 | 0.00 | 0.00 | 49 | 1015.5 |
| 20260504151023 | 72 | 259 | 7.0 | 10.4 | 0.00 | 0.00 | 0.00 | 57 | 1016.5 |
| 20260504150523 | 72 | 219 | 7.0 | 10.4 | 0.00 | 0.00 | 0.00 | 58 | 1016.5 |
| 20260504141023 | 69 | 237 | 5.2 | 9.6 | 0.00 | 0.00 | 0.00 | 66 | 1016.5 |
| 20260504140523 | 69 | 244 | 5.2 | 9.6 | 0.00 | 0.00 | 0.00 | 66 | 1016.6 |
| 20260504130524 | 65 | 199 | 4.3 | 7.8 | 0.00 | 0.00 | 0.00 | 72 | 1016.3 |
| 20260504110523 | 56 | 199 | 1.7 | 3.5 | 0.00 | 0.00 | 0.00 | 87 | 1015.5 |
| 20260504100523 | 56 | 167 | 1.7 | 3.5 | 0.00 | 0.00 | 0.00 | 87 | 1015.4 |
| 20260504081538 | 57 | 165 | 0.9 | 2.6 | 0.00 | 0.00 | 0.00 | 86 | 1016.0 |
| 20260504081025 | 58 | 173 | 0.0 | 1.7 | 0.00 | 0.00 | 0.00 | 86 | 1015.9 |
| 20260504080523 | 58 | 162 | 0.9 | 1.7 | 0.00 | 0.00 | 0.00 | 86 | 1015.9 |
| 20260504050524 | 58 | 0 | 0.0 | 0.0 | 0.00 | 0.00 | 0.00 | 85 | 1017.2 |
| 20260504045524 | 59 | 0 | 0.0 | 0.0 | 0.00 | 0.00 | 0.00 | 84 | 1017.2 |
| 20260504045026 | 59 | 0 | 0.0 | 0.0 | 0.00 | 0.00 | 0.00 | 84 | 1017.2 |
| 20260504044538 | 59 | 0 | 0.0 | 0.0 | 0.00 | 0.00 | 0.00 | 83 | 1017.2 |
| 20260504044023 | 59 | 0 | 0.0 | 0.0 | 0.00 | 0.00 | 0.00 | 83 | 1017.3 |
| 20260504043524 | 60 | 0 | 0.0 | 0.0 | 0.00 | 0.00 | 0.00 | 82 | 1017.3 |
| 20260504043051 | 60 | 0 | 0.0 | 0.0 | 0.00 | 0.00 | 0.00 | 79 | 1017.3 |
| 20260504042524 | 60 | 0 | 0.0 | 0.9 | 0.00 | 0.00 | 0.00 | 78 | 1017.3 |
| 20260504042028 | 60 | 0 | 0.0 | 0.9 | 0.00 | 0.00 | 0.00 | 79 | 1017.3 |
| 20260504041536 | 59 | 0 | 0.0 | 0.0 | 0.00 | 0.00 | 0.00 | 81 | 1017.3 |
| 20260504041023 | 59 | 0 | 0.0 | 0.0 | 0.00 | 0.00 | 0.00 | 81 | 1017.3 |
| 20260504040524 | 60 | 0 | 0.0 | 0.0 | 0.00 | 0.00 | 0.00 | 80 | 1017.4 |
| 20260504040039 | 61 | 0 | 0.0 | 0.0 | 0.00 | 0.00 | 0.00 | 78 | 1017.3 |